Location: Saint-Palais-sur-Mer
(45.6429°N, 1.0859°W)
Time: 00:56:55
(UTC+01:00)

Tiros 1 despin weight - Pass Details

Date: 10 February 2026
Orbit: 556 x 593 km, 48.2° (Epoch: 13 March)

Event Time Altitude Azimuth Distance (km) Brightness Sun altitude
Rises 17:46:58 0° 195° (SSW) 2,719 ? 5.1°
Reaches altitude 10° 17:50:01 10° 171° (S) 1,828 ? 4.6°
Maximum altitude 17:52:23 15° 137° (SE) 1,541 ? 4.2°
Drops below altitude 10° 17:54:46 10° 102° (ESE) 1,835 ? 3.8°
Sets 17:57:49 0° 78° (ENE) 2,737 ? 3.4°
